| time (UTC) | temp F | wind direction | speed MPH | gust MPH | rain 1hr in | rain 24hr in | rain mn in | humidity % | barometer mb |
| 20260507021909 | 52 | 280 | 2.0 | 0.0 | 0.00 | 0.00 | 0.00 | 93 | |
| 20260507012018 | 54 | 350 | 2.0 | 0.0 | 0.00 | 0.00 | 0.00 | 93 | |
| 20260507001909 | 54 | 310 | 2.0 | 0.0 | 0.00 | 0.00 | 0.00 | 93 | |
| 20260506231909 | 54 | 0 | 0.0 | 0.0 | 0.00 | 0.00 | 0.00 | 93 | |
| 20260506222108 | 55 | 270 | 7.0 | 0.0 | 0.00 | 0.00 | 0.00 | 87 | |
| 20260506211909 | 55 | 310 | 5.0 | 0.0 | 0.00 | 0.00 | 0.00 | 87 | |
| 20260506201941 | 59 | 310 | 5.0 | 0.0 | 0.00 | 0.00 | 0.00 | 77 | |
| 20260506192100 | 59 | 60 | 2.0 | 0.0 | 0.00 | 0.00 | 0.00 | 72 | |
| 20260506181957 | 63 | 190 | 2.0 | 0.0 | 0.00 | 0.00 | 0.00 | 67 | |
| 20260506171907 | 64 | 170 | 2.0 | 0.0 | 0.00 | 0.00 | 0.00 | 63 | |
| 20260506162125 | 66 | 280 | 5.0 | 0.0 | 0.00 | 0.00 | 0.00 | 55 | |
| 20260506151939 | 68 | 250 | 2.0 | 0.0 | 0.00 | 0.00 | 0.00 | 49 | |
| 20260506141925 | 64 | 160 | 7.0 | 0.0 | 0.00 | 0.00 | 0.00 | 59 | |
| 20260506131926 | 64 | 200 | 7.0 | 0.0 | 0.00 | 0.00 | 0.00 | 59 | |
| 20260506121925 | 64 | 190 | 7.0 | 0.0 | 0.00 | 0.00 | 0.00 | 63 | |
| 20260506111910 | 63 | 180 | 7.0 | 0.0 | 0.00 | 0.00 | 0.00 | 67 | |
| 20260506102112 | 61 | 180 | 9.0 | 0.0 | 0.00 | 0.00 | 0.00 | 67 | |
| 20260506091910 | 61 | 200 | 12.0 | 0.0 | 0.00 | 0.00 | 0.00 | 67 | |
| 20260506081908 | 59 | 200 | 9.0 | 0.0 | 0.00 | 0.00 | 0.00 | 72 | |
| 20260506071910 | 57 | 230 | 9.0 | 0.0 | 0.00 | 0.00 | 0.00 | 76 | |
| 20260506061911 | 55 | 180 | 9.0 | 0.0 | 0.00 | 0.00 | 0.00 | 82 | |
| 20260506042109 | 54 | 120 | 5.0 | 0.0 | 0.00 | 0.00 | 0.00 | 87 | |
| 20260506031911 | 54 | 140 | 5.0 | 0.0 | 0.00 | 0.00 | 0.00 | 93 |